Weather History for Vero Beach, FL

Change the Weather History Date:

Monday, August 19, 2013

  Actual Average Record
Temperature  
Mean Temperature 84 °F 82 °F  
Max Temperature 91 °F 90 °F 96 °F (1993)
Min Temperature 76 °F 74 °F 68 °F (1960)
Degree Days  
Heating Degree Days 0 0  
Month to date heating degree days 0 0  
Since 1 June heating degree days 0 0  
Since 1 July heating degree days 0 0  
Cooling Degree Days 19 17  
Month to date cooling degree days 323 323  
Year to date cooling degree days 2211 2103  
Since 1 June cooling degree days 1304 1297  
Growing Degree Days 34 (Base 50)    
Moisture  
Dew Point 76 °F    
Average Humidity 80    
Maximum Humidity 100    
Minimum Humidity 60    
Precipitation  
Precipitation 0.00 in 0.22 in 6.33 in (2008)
Month to date precipitation 0.25 4.18  
Year to date precipitation 26.46 31.85  
Sea Level Pressure  
Sea Level Pressure 30.04 in    
Wind  
Wind Speed 8 mph (ESE)    
Max Wind Speed 17 mph    
Max Gust Speed 23 mph    
Visibility 10 miles    
Events      
T = Trace of Precipitation, MM = Missing Value Source: NWS Daily Summary

Daily Weather History Graph

Daily Weather History Graph

Search for Another Location

Airport:

Trip Planner

Search our weather history database for the weather conditions in past years. The results will help you decide how hot, cold, wet, or windy it might be!

Date:

Astronomy

Aug. 19, 2013 Rise Set
Actual Time 6:54 AM EDT 7:55 PM EDT
Civil Twilight 6:30 AM EDT 8:19 PM EDT
Nautical Twilight 6:01 AM EDT 8:48 PM EDT
Astronomical Twilight 5:31 AM EDT 9:18 PM EDT
Moon 6:45 PM EDT (8/19) 5:14 AM EDT (8/19)
Length of Visible Light 13h 49m
Length of Day
13h 01m
Waxing Gibbous, 97% of the Moon is Illuminated
Aug 19
Waxing Gibbous
Aug 20
Full
Aug 28
Last Quarter
Sep 5
New
Sep 12
First Quarter

Hourly Weather History & Observations

Time (EDT) Temp. Heat Index Dew Point Humidity Pressure Visibility Wind Dir Wind Speed Gust Speed Precip Events Conditions
12:53 AM 80.1 °F 86.4 °F 78.1 °F 94% 30.09 in 10.0 mi East 4.6 mph - N/A   Clear
1:53 AM 79.0 °F - 78.1 °F 97% 30.08 in 10.0 mi Calm Calm - N/A   Clear
2:53 AM 77.0 °F - 77.0 °F 100% 30.06 in 10.0 mi ENE 4.6 mph - N/A   Clear
3:53 AM 78.1 °F - 77.0 °F 96% 30.04 in 10.0 mi East 4.6 mph - N/A   Clear
4:53 AM 78.1 °F - 75.0 °F 90% 30.04 in 10.0 mi ESE 5.8 mph - N/A   Partly Cloudy
5:53 AM 79.0 °F - 75.9 °F 90% 30.02 in 10.0 mi East 6.9 mph - N/A   Clear
6:53 AM 80.1 °F 85.8 °F 77.0 °F 90% 30.03 in 10.0 mi ESE 6.9 mph - N/A   Clear
7:53 AM 82.0 °F 91.0 °F 78.1 °F 88% 30.04 in 10.0 mi ESE 6.9 mph - N/A   Clear
8:53 AM 84.0 °F 92.6 °F 75.9 °F 76% 30.04 in 10.0 mi East 10.4 mph - N/A   Clear
9:53 AM 86.0 °F 96.9 °F 77.0 °F 74% 30.05 in 10.0 mi ESE 15.0 mph - N/A   Scattered Clouds
10:53 AM 88.0 °F 100.2 °F 77.0 °F 70% 30.07 in 10.0 mi SE 16.1 mph - N/A   Clear
11:53 AM 89.1 °F 100.2 °F 75.9 °F 65% 30.07 in 10.0 mi SE 13.8 mph 20.7 mph N/A   Scattered Clouds
12:53 PM 90.0 °F 100.2 °F 75.0 °F 61% 30.06 in 10.0 mi ESE 15.0 mph 18.4 mph N/A   Scattered Clouds
1:53 PM 91.0 °F 102.9 °F 75.9 °F 61% 30.05 in 10.0 mi ESE 12.7 mph - N/A   Clear
2:53 PM 90.0 °F 101.3 °F 75.9 °F 63% 30.03 in 10.0 mi East 12.7 mph - N/A   Clear
3:53 PM 89.1 °F 100.2 °F 75.9 °F 65% 30.02 in 10.0 mi East 12.7 mph - N/A   Scattered Clouds
4:53 PM 88.0 °F 100.2 °F 77.0 °F 70% 30.01 in 10.0 mi ESE 10.4 mph - N/A   Clear
5:53 PM 87.1 °F 98.8 °F 77.0 °F 72% 30.00 in 10.0 mi East 11.5 mph - N/A   Partly Cloudy
6:53 PM 84.9 °F 94.1 °F 75.9 °F 74% 30.00 in 10.0 mi ESE 11.5 mph - N/A   Clear
7:53 PM 82.0 °F 89.4 °F 75.9 °F 82% 30.02 in 10.0 mi ESE 6.9 mph - N/A   Clear
8:53 PM 81.0 °F 86.7 °F 75.0 °F 82% 30.03 in 10.0 mi East 3.5 mph - N/A   Clear
9:53 PM 79.0 °F - 75.0 °F 88% 30.04 in 10.0 mi Calm Calm - N/A   Clear
10:53 PM 79.0 °F - 75.0 °F 88% 30.06 in 10.0 mi ESE 3.5 mph - N/A   Clear
11:53 PM 79.0 °F - 75.9 °F 90% 30.06 in 10.0 mi Calm Calm - N/A   Clear